When you browse on this site, cookies collect data to enhance your experience and personalize the content and advertising you see.
Visit our Privacy Policy to learn more. By continuing to use the site, you agree to this use of cookies and data.
  • In Hungary
  • List of Countries
  • For 7 days
  • Water Temperature
  • Satellite Maps
  • Weather Map
  • News
  • Weather Widgets
  • user-avatar
    Login

    Hourly Weather Cobija

    Today, 21 January, Monday

    Time Temperature Precipitation Wind Pressure Humidity
    00:00 +23°C° 0.4 mm 0 mps 739 mmHg 96%
    01:00 +23°C° 0.4 mm 0 mps 739 mmHg 97%
    02:00 +22°C° 0.8 mm 0 mps 739 mmHg 97%
    03:00 +22°C° 0.8 mm 0 mps 738 mmHg 97%
    04:00 +22°C° 0.8 mm 0 mps 738 mmHg 97%
    05:00 +23°C° 0.4 mm 0 mps 739 mmHg 96%
    06:00 +23°C° 0.4 mm 0 mps 739 mmHg 95%
    07:00 +24°C° 0.4 mm 0 mps 740 mmHg 93%
    08:00 +25°C° 1.6 mm 0 mps 740 mmHg 90%
    09:00 +27°C° 1.6 mm 0 mps 740 mmHg 87%
    10:00 +30°C° 1.6 mm 1 mps 740 mmHg 84%
    11:00 +29°C° 1.5 mm 0 mps 739 mmHg 81%
    12:00 +30°C° 1.5 mm 0 mps 738 mmHg 77%
    13:00 +31°C° 1.5 mm 0 mps 738 mmHg 74%
    14:00 +30°C° 2.4 mm 0 mps 737 mmHg 80%
    15:00 +30°C° 2.4 mm 1 mps 737 mmHg 87%
    16:00 +29°C° 2.4 mm 1 mps 736 mmHg 93%
    17:00 +28°C° 0.3 mm 1 mps 736 mmHg 94%
    18:00 +25°C° 0.3 mm 0 mps 737 mmHg 95%
    19:00 +24°C° 0.3 mm 0 mps 737 mmHg 96%
    20:00 +24°C° 0 mm 0 mps 738 mmHg 96%
    21:00 +24°C° 0 mm 0 mps 738 mmHg 96%
    22:00 +23°C° 0 mm 0 mps 739 mmHg 97%
    23:00 +23°C° 0 mm 0 mps 739 mmHg 97%

    Tomorrow, 22 January, Tuesday

    Time Temperature Precipitation Wind Pressure Humidity
    00:00 +23°C° 0 mm 0 mps 739 mmHg 97%
    01:00 +23°C° 0 mm 0 mps 738 mmHg 97%
    02:00 +23°C° 0 mm 0 mps 738 mmHg 97%
    03:00 +22°C° 0 mm 0 mps 738 mmHg 98%
    04:00 +22°C° 0 mm 0 mps 738 mmHg 98%
    05:00 +23°C° 0.7 mm 0 mps 739 mmHg 97%
    06:00 +23°C° 0.7 mm 0 mps 739 mmHg 96%
    07:00 +24°C° 0.7 mm 0 mps 740 mmHg 95%
    08:00 +27°C° 1.6 mm 1 mps 740 mmHg 94%
    09:00 +28°C° 1.6 mm 1 mps 740 mmHg 93%
    10:00 +29°C° 1.6 mm 1 mps 740 mmHg 92%
    11:00 +29°C° 2 mm 1 mps 740 mmHg 91%
    12:00 +29°C° 2 mm 1 mps 739 mmHg 90%
    13:00 +30°C° 2 mm 1 mps 738 mmHg 89%
    14:00 +29°C° 0.8 mm 1 mps 738 mmHg 89%
    15:00 +27°C° 0.8 mm 0 mps 737 mmHg 89%
    16:00 +27°C° 0.8 mm 0 mps 737 mmHg 89%
    17:00 +26°C° 0.6 mm 0 mps 737 mmHg 92%
    18:00 +25°C° 0.6 mm 0 mps 738 mmHg 95%
    19:00 +26°C° 0.6 mm 1 mps 738 mmHg 98%
    20:00 +26°C° 0.6 mm 1 mps 739 mmHg 98%
    21:00 +26°C° 0.6 mm 1 mps 740 mmHg 98%
    22:00 +25°C° 0.6 mm 1 mps 740 mmHg 98%
    23:00 +25°C° 0.1 mm 1 mps 740 mmHg 98%

    Day after tomorrow, 23 January, Wednesday

    Time Temperature Precipitation Wind Pressure Humidity
    00:00 +23°C° 0.1 mm 0 mps 740 mmHg 99%
    01:00 +23°C° 0.1 mm 0 mps 739 mmHg 99%
    02:00 +23°C° 0.4 mm 0 mps 739 mmHg 99%
    03:00 +23°C° 0.4 mm 0 mps 739 mmHg 99%
    04:00 +22°C° 0.4 mm 0 mps 739 mmHg 99%
    05:00 +23°C° 0.1 mm 0 mps 739 mmHg 99%
    06:00 +25°C° 0.1 mm 1 mps 740 mmHg 98%
    07:00 +25°C° 0.1 mm 1 mps 740 mmHg 98%
    08:00 +26°C° 0.3 mm 1 mps 741 mmHg 92%
    09:00 +28°C° 0.3 mm 1 mps 741 mmHg 87%
    10:00 +29°C° 0.3 mm 1 mps 741 mmHg 82%
    11:00 +30°C° 0.3 mm 1 mps 741 mmHg 76%
    12:00 +31°C° 0.3 mm 1 mps 740 mmHg 69%
    13:00 +32°C° 0.3 mm 2 mps 739 mmHg 63%
    14:00 +32°C° 0.1 mm 1 mps 738 mmHg 61%
    15:00 +32°C° 0.1 mm 1 mps 738 mmHg 60%
    16:00 +32°C° 0.1 mm 1 mps 737 mmHg 58%
    17:00 +29°C° 0.1 mm 0 mps 737 mmHg 67%
    18:00 +27°C° 0.1 mm 0 mps 737 mmHg 77%
    19:00 +25°C° 0.1 mm 0 mps 738 mmHg 86%
    20:00 +24°C° 0 mm 0 mps 738 mmHg 88%
    21:00 +24°C° 0 mm 0 mps 739 mmHg 90%
    22:00 +24°C° 0 mm 0 mps 739 mmHg 92%
    23:00 +23°C° 0.4 mm 0 mps 739 mmHg 93%

    24 January, Thursday

    Time Temperature Precipitation Wind Pressure Humidity
    00:00 +23°C° 0.4 mm 0 mps 738 mmHg 95%
    01:00 +23°C° 0.4 mm 0 mps 738 mmHg 96%
    02:00 +23°C° 0 mm 0 mps 738 mmHg 97%
    03:00 +23°C° 0 mm 0 mps 738 mmHg 97%
    04:00 +23°C° 0 mm 0 mps 738 mmHg 97%
    05:00 +23°C° 0.1 mm 0 mps 738 mmHg 96%
    06:00 +24°C° 0.1 mm 0 mps 739 mmHg 95%
    07:00 +24°C° 0.1 mm 0 mps 740 mmHg 94%
    08:00 +25°C° 0.7 mm 0 mps 740 mmHg 92%
    09:00 +26°C° 0.7 mm 0 mps 740 mmHg 91%
    10:00 +28°C° 0.7 mm 1 mps 740 mmHg 89%
    11:00 +30°C° 0.1 mm 1 mps 739 mmHg 80%
    12:00 +31°C° 0.1 mm 1 mps 739 mmHg 72%
    13:00 +32°C° 0.1 mm 1 mps 738 mmHg 64%
    14:00 +31°C° 0.1 mm 1 mps 737 mmHg 67%
    15:00 +30°C° 0.1 mm 1 mps 736 mmHg 71%
    16:00 +29°C° 0.1 mm 1 mps 735 mmHg 75%
    17:00 +28°C° 0 mm 1 mps 736 mmHg 78%
    18:00 +27°C° 0 mm 1 mps 736 mmHg 81%
    19:00 +24°C° 0 mm 0 mps 736 mmHg 84%
    20:00 +26°C° 0 mm 1 mps 737 mmHg 83%
    21:00 +25°C° 0 mm 1 mps 737 mmHg 82%
    22:00 +25°C° 0 mm 1 mps 738 mmHg 81%
    23:00 +25°C° 0 mm 1 mps 738 mmHg 83%

    25 January, Friday

    Time Temperature Precipitation Wind Pressure Humidity
    00:00 +25°C° 0 mm 1 mps 737 mmHg 84%
    01:00 +25°C° 0 mm 1 mps 737 mmHg 86%
    02:00 +25°C° 0 mm 1 mps 737 mmHg 89%
    03:00 +24°C° 0 mm 1 mps 737 mmHg 91%
    04:00 +24°C° 0 mm 1 mps 737 mmHg 94%
    05:00 +25°C° 0 mm 1 mps 738 mmHg 91%
    06:00 +26°C° 0 mm 1 mps 738 mmHg 87%
    07:00 +27°C° 0 mm 1 mps 739 mmHg 84%
    08:00 +29°C° 0 mm 1 mps 739 mmHg 74%
    09:00 +31°C° 0 mm 1 mps 739 mmHg 65%
    10:00 +33°C° 0 mm 1 mps 739 mmHg 55%
    11:00 +34°C° 0.2 mm 1 mps 738 mmHg 52%
    12:00 +36°C° 0.2 mm 1 mps 737 mmHg 48%
    13:00 +37°C° 0.2 mm 1 mps 736 mmHg 45%
    14:00 +36°C° 0 mm 1 mps 736 mmHg 47%
    15:00 +35°C° 0 mm 1 mps 735 mmHg 50%
    16:00 +35°C° 0 mm 1 mps 734 mmHg 53%
    17:00 +33°C° 0 mm 1 mps 734 mmHg 62%
    18:00 +31°C° 0 mm 1 mps 734 mmHg 71%
    19:00 +28°C° 0 mm 2 mps 735 mmHg 80%
    20:00 +28°C° 0 mm 1 mps 735 mmHg 83%
    21:00 +27°C° 0 mm 1 mps 736 mmHg 86%
    22:00 +27°C° 0 mm 1 mps 737 mmHg 89%
    23:00 +26°C° 0 mm 1 mps 737 mmHg 89%

    26 January, Saturday

    Time Temperature Precipitation Wind Pressure Humidity
    00:00 +26°C° 0 mm 1 mps 736 mmHg 89%
    01:00 +26°C° 0 mm 1 mps 736 mmHg 89%
    02:00 +26°C° 0 mm 1 mps 736 mmHg 91%
    03:00 +26°C° 0 mm 1 mps 736 mmHg 93%
    04:00 +25°C° 0 mm 1 mps 736 mmHg 94%
    05:00 +26°C° 0 mm 1 mps 737 mmHg 92%
    06:00 +26°C° 0 mm 1 mps 738 mmHg 91%
    07:00 +27°C° 0 mm 1 mps 738 mmHg 89%
    08:00 +28°C° 1.9 mm 1 mps 738 mmHg 89%
    09:00 +28°C° 1.9 mm 1 mps 738 mmHg 90%
    10:00 +29°C° 1.9 mm 1 mps 738 mmHg 91%
    11:00 +30°C° 2 mm 1 mps 737 mmHg 87%
    12:00 +28°C° 2 mm 0 mps 737 mmHg 84%
    13:00 +29°C° 2 mm 0 mps 736 mmHg 80%
    14:00 +29°C° 0.1 mm 0 mps 735 mmHg 78%
    15:00 +29°C° 0.1 mm 0 mps 734 mmHg 76%
    16:00 +31°C° 0.1 mm 1 mps 734 mmHg 74%
    17:00 +30°C° 0 mm 1 mps 734 mmHg 79%
    18:00 +28°C° 0 mm 1 mps 734 mmHg 84%
    19:00 +27°C° 0 mm 1 mps 735 mmHg 89%
    20:00 +27°C° 0 mm 1 mps 735 mmHg 88%
    21:00 +27°C° 0 mm 1 mps 736 mmHg 88%
    22:00 +27°C° 0 mm 1 mps 737 mmHg 88%
    23:00 +26°C° 0 mm 1 mps 737 mmHg 90%
    Show more